SCP
0 0 0 0 0 0 0 0 0 0 0 0 0 0 0 0 0 0 0 0 0 0 0 0 0 0 0 0 0 0 0 0 0 0 1 1 1 1
0 0 0 0 0 0 0 0 0 0 0 0 0 0 0 0 0 0 0 0 0 0 0 0 0 0 0 0 0 0 1 0 0 0 1 1 1 1
0 0 0 0 0 0 0 0 0 0 0 0 0 0 0 0 0 0 0 0 0 0 0 0 0 0 0 0 0 1 1 0 0 0 1 1 0 0
0 0 0 0 0 0 0 0 0 0 0 0 0 0 0 0 0 0 0 0 0 0 0 0 0 0 0 0 0 0 0 0 0 0 0 0 0 0
0 0 0 0 0 0 0 0 0 0 0 0 0 0 0 0 0 0 0 0 0 0 0 0 0 0 0 0 0 0 0 0 0 0 0 0 0 0
0 0 0 0 0 0 0 0 0 0 0 0 0 0 0 0 0 0 0 0 0 0 0 0 0 0 0 0 0 0 0 0 0 0 0 0 0 0
0 0 0 0 0 0 0 0 0 0 0 0 0 0 0 0 0 0 0 0 0 0 0 0 0 0 0 0 0 0 0 0 0 0 0 0 0 0
0 0 0 0 0 0 0 0 0 0 0 0 0 0 0 0 0 0 0 0 0 0 0 0 0 0 0 0 0 0 0 0 0 0 0 0 0 0
0 0 0 0 0 0 0 0 0 0 0 0 0 0 0 0 0 0 0 0 0 0 0 0 0 0 0 0 0 0 0 0 0 0 0 0 0 0
0 0 0 0 0 0 0 0 0 0 0 0 0 0 0 0 0 0 0 0 0 0 0 0 0 0 0 0 0 0 0 0 0 0 0 0 0 0
0 0 0 0 0 0 0 0 0 0 0 0 0 0 0 0 0 0 0 0 0 0 0 0 0 0 0 0 0 0 0 0 0 0 0 0 0 0
0 0 0 0 0 0 0 0 0 0 0 0 0 0 0 0 0 0 0 0 0 0 0 0 0 0 0 0 0 0 0 0 0 0 0 0 0 0
0 0 0 0 0 0 0 0 0 0 0 0 0 0 0 0 0 0 0 0 0 0 0 0 0 0 0 0 0 0 0 0 0 0 0 0 0 0
0 0 0 0 0 0 0 0 0 0 0 0 0 0 0 0 0 0 0 0 0 0 0 0 0 0 0 0 0 0 0 0 0 0 0 0 0 0
0 0 0 0 0 0 0 0 0 0 0 0 0 0 0 0 0 0 0 0 0 0 0 0 0 0 0 0 0 0 0 0 0 0 0 0 0 0
0 0 0 0 0 0 0 0 0 0 0 0 0 0 0 0 0 0 0 0 0 0 0 0 0 0 0 0 0 0 0 0 0 0 0 0 0 0
0 0 0 0 0 0 0 0 0 0 0 0 0 0 0 0 0 0 0 0 0 0 0 0 0 0 0 0 0 0 0 0 0 0 0 0 0 0
0 0 0 0 0 0 0 0 0 0 0 0 0 0 0 0 0 0 0 0 0 0 0 0 0 0 0 0 0 0 0 0 0 0 0 0 0 0
0 0 0 0 0 0 0 0 0 0 0 0 0 0 0 0 0 0 0 0 0 0 0 0 0 0 0 0 0 0 0 0 0 0 0 0 0 0
0 0 0 0 0 0 0 0 0 0 0 0 0 0 0 0 0 0 0 0 0 0 0 0 0 0 0 0 0 0 0 0 0 0 0 0 0 0
0 0 0 0 0 0 0 0 0 0 0 0 0 0 0 0 0 0 0 0 0 0 0 0 0 0 0 0 0 0 0 0 0 0 0 0 0 0
0 0 0 0 0 0 0 0 0 0 0 0 0 0 0 0 0 0 0 0 0 0 0 0 0 0 0 0 0 0 0 0 0 0 0 0 0 0
0 0 0 0 0 0 0 0 0 0 0 0 0 0 0 0 0 0 0 0 0 0 0 0 0 0 0 0 0 0 0 0 0 0 0 0 0 0
Wind_Speed
4 4 3 2 2 2 2 3 3 3 5 3 2 2 2 3 5 4 5 9 9 9 9 8 9 9 9 9 9 9 9 8 8 8 9 9 9 9
3 4 3 2 2 2 2 2 2 3 4 3 3 3 4 4 5 4 5 9 9 9 9 8 8 8 8 8 8 8 8 7 6 8 8 8 9 8
2 3 3 2 2 1 1 2 2 2 4 4 3 3 3 4 5 4 4 4 5 8 9 8 7 7 7 7 7 6 6 6 6 7 7 7 8 7
3 3 2 2 2 1 1 2 2 2 3 5 4 3 3 4 4 5 4 3 3 7 8 8 7 7 6 5 5 5 5 5 5 6 7 7 7 6
3 3 3 2 2 2 2 2 2 2 2 3 4 3 3 3 4 4 4 3 3 5 6 6 6 5 5 4 4 4 4 5 5 5 5 5 4 4
2 2 3 4 4 3 2 2 2 2 2 2 3 3 3 3 2 3 3 2 3 3 4 4 4 4 4 4 4 4 3 4 4 3 1 1 2 2
1 1 1 2 2 2 2 2 2 2 1 2 3 3 3 2 3 2 3 3 3 2 2 3 2 2 3 4 4 4 3 3 3 1 1 0 2 2
0 0 1 1 1 2 3 3 3 2 2 2 3 3 4 3 2 2 2 3 3 2 2 3 2 2 2 2 3 3 2 1 1 1 1 0 2 2
0 0 1 2 3 1 2 3 4 4 4 3 3 4 4 3 2 2 2 3 4 3 2 3 2 3 2 3 3 1 1 1 1 1 1 1 2 2
1 0 0 1 1 1 1 1 2 3 3 2 2 3 3 2 2 2 2 2 3 2 2 1 2 2 3 1 1 2 2 3 2 2 2 1 1 2
1 1 0 0 1 2 1 1 2 3 3 3 3 2 3 3 2 1 1 1 3 3 1 0 1 2 2 2 1 3 3 4 3 3 3 2 2 2
2 1 1 1 2 2 1 0 1 3 2 3 3 4 3 3 4 2 1 1 2 2 1 0 0 1 2 2 1 1 2 3 4 3 3 3 3 2
1 1 1 2 3 3 3 1 2 2 1 1 2 2 2 2 3 3 2 1 1 2 1 0 1 0 0 2 2 1 1 1 1 2 3 3 3 2
0 1 1 2 3 4 3 1 2 2 1 1 1 2 2 2 2 2 1 1 0 1 2 1 1 1 1 1 1 2 2 1 1 1 1 2 3 3
0 1 2 3 4 3 4 3 3 1 1 1 1 1 1 1 1 1 1 2 2 2 1 1 1 1 1 1 1 1 1 1 1 1 2 2 1 1
1 2 3 4 4 3 3 3 2 1 0 1 1 1 1 1 1 1 1 2 2 3 3 2 1 0 0 0 1 1 1 1 1 1 1 2 1 0
1 1 1 1 2 2 1 2 1 1 1 1 0 1 1 1 1 1 1 1 1 1 2 3 2 1 1 1 1 1 0 0 1 1 1 2 2 1
2 1 1 1 1 1 1 1 1 1 1 1 0 0 0 1 1 1 1 1 1 1 1 2 2 2 2 2 0 1 0 0 1 1 1 1 2 2
2 0 1 1 1 1 1 1 1 1 1 1 0 0 0 1 1 1 1 1 1 1 1 2 1 1 1 1 2 1 1 0 1 1 1 0 1 2
1 1 1 1 1 1 1 1 1 1 1 0 0 0 0 0 1 1 0 0 0 1 1 1 1 0 1 1 0 2 1 1 1 1 1 1 1 2
1 1 1 1 1 1 1 1 1 1 1 0 0 0 0 1 1 0 0 1 1 0 1 1 2 1 0 1 2 1 2 3 1 1 1 1 2 2
1 2 1 1 1 1 1 1 1 1 1 0 0 0 1 1 1 1 0 0 0 0 1 1 1 1 1 2 2 2 2 3 4 5 4 2 1 1
2 2 2 2 1 1 1 1 2 2 1 1 1 1 1 0 1 1 0 0 0 1 0 1 1 2 2 2 2 2 3 3 3 3 4 5 5 3
Wind_Direction
202 203 207 214 211 220 215 200 206 270 284 281 288 288 291 284 289 296 290 277 276 276 276 278 278 275 274 272 271 272 276 271 263 257 255 266 256 256
205 195 198 209 213 212 217 224 215 229 268 279 280 302 304 303 303 302 293 293 284 279 278 276 278 277 276 272 270 269 268 261 259 252 252 264 254 255
203 185 196 197 201 218 228 226 227 226 259 286 289 298 302 301 307 310 299 288 286 284 282 281 282 279 277 274 267 265 262 261 257 254 256 264 260 258
202 191 201 201 205 218 229 236 234 237 245 274 293 298 294 297 304 307 304 303 297 295 293 291 288 285 280 274 271 265 263 262 258 258 254 260 267 255
200 197 200 186 223 235 237 242 245 255 250 255 281 294 295 300 311 307 304 304 306 307 305 302 299 293 288 283 277 268 266 263 259 260 252 256 271 263
211 207 208 205 212 218 231 236 243 249 246 259 279 290 293 295 296 301 318 321 312 315 313 310 317 317 307 298 279 270 267 268 265 260 236 284 310 282
223 228 232 239 245 248 243 228 225 237 251 266 278 290 293 304 306 307 311 320 316 310 318 314 323 315 304 298 280 259 259 259 248 204 171 230 322 299
174 36 352 326 310 298 290 280 271 261 251 259 276 279 289 290 296 298 306 323 313 323 324 306 310 292 289 277 270 278 269 208 188 150 140 308 331 304
71 66 356 350 341 359 342 329 325 310 283 266 262 269 267 265 271 290 298 298 287 298 314 299 315 300 297 293 288 249 119 89 68 80 58 17 348 329
48 335 73 333 316 303 329 349 336 324 309 294 257 270 271 264 252 258 267 293 296 303 308 288 323 317 316 295 187 114 81 55 45 55 49 35 11 11
18 24 67 259 288 312 350 350 330 323 331 324 301 304 304 308 299 285 284 305 302 306 319 6 347 338 339 350 51 70 62 46 34 39 43 37 41 55
8 356 338 320 309 321 324 356 323 314 337 1 4 359 348 343 345 325 265 251 277 291 301 358 331 5 351 345 15 30 50 42 27 25 26 45 67 58
352 335 336 340 333 330 319 304 266 292 343 359 351 352 354 357 354 349 332 250 237 255 267 304 256 323 277 315 345 357 28 31 22 18 33 53 48 53
330 312 318 332 335 335 333 348 341 342 13 10 356 348 345 343 343 344 8 47 319 261 279 263 226 200 206 303 308 337 4 21 23 6 360 22 28 24
359 336 334 338 346 3 18 358 342 3 42 360 326 321 317 313 328 350 29 48 39 19 352 321 242 226 202 205 246 304 336 347 9 14 2 354 342 352
9 14 3 7 6 8 359 352 351 353 258 248 269 296 333 355 357 2 21 14 25 10 11 12 349 242 192 155 179 231 269 269 313 353 351 331 327 337
332 7 11 4 8 360 359 354 351 349 338 321 322 327 344 6 2 17 37 32 42 5 358 10 18 44 58 183 192 190 245 315 265 315 3 336 323 333
3 36 349 327 318 321 337 341 341 333 331 341 1 329 356 16 29 39 56 62 42 357 330 325 344 17 38 27 121 179 166 305 325 350 26 325 313 330
20 38 295 279 287 280 280 296 304 312 326 333 328 0 39 49 55 39 48 52 18 332 306 307 328 20 46 353 342 32 147 150 18 18 357 309 273 306
8 304 289 285 277 252 253 271 292 316 315 298 325 346 151 125 89 54 38 46 343 326 328 325 316 292 202 205 282 332 359 152 129 48 8 14 358 353
319 301 289 287 278 257 249 247 245 250 248 220 205 210 161 132 120 94 66 4 346 324 330 311 295 339 56 85 83 30 9 25 62 133 113 60 34 23
297 288 283 270 262 256 245 235 238 237 222 226 224 175 156 147 150 154 140 81 355 341 311 315 341 27 68 98 100 83 40 28 38 44 50 70 117 123
283 277 272 264 258 251 243 239 241 230 210 204 193 183 171 154 143 138 131 114 72 34 31 13 14 44 69 94 101 96 76 52 41 40 32 26 39 53